[[{"header":{"parameterUnit":"m.s-1","parameterCategory":2,"la1":30.2991,"la2":30.254,"lo1":-89.0895,"lo2":-89.0444,"dy":0.0017,"dx":0.0017,"nx":28,"ny":28,"refTime":"2025-03-31T21:00:00:Z","depth":"0","parameterNumber":2,"parameterNumberName":"U-component_of_CURRENTS"},"data":[0,0,0,0,0,0,0,0,0,0,0,0,0,0,0,0,0,0,0,0,0,0,0,0,0,0,0,0,0,0,0,0,0,0,0,0,0,0,0,0,0,0,0,0,0,0,0,0,0,0,0,0,0,0,0,0,0,0,-0.3455,-0.3456,0,-0.3494,-0.3494,-0.3494,-0.349,-0.349,-0.349,-0.349,-0.3414,-0.3412,-0.341,0,0,0,0,0,0,0,0,0,0,0,0,0,-0.3255,-0.3259,-0.3455,-0.3456,-0.3457,-0.3494,-0.3494,-0.3494,-0.349,-0.349,-0.349,-0.3491,-0.3415,-0.3413,-0.341,0,0,0,0,0,0,0,0,0,0,0,0,0,-0.3316,-0.326,-0.3454,-0.3465,-0.3467,-0.3494,-0.3494,-0.3494,-0.349,-0.349,-0.349,-0.3491,-0.3416,-0.3413,-0.341,-0.3387,0,0,-0.34,-0.3398,0,0,0,0,0,0,0,0,-0.3313,-0.3322,-0.3463,-0.3465,-0.3467,-0.3494,-0.3396,-0.3455,-0.349,-0.3473,-0.349,-0.3491,-0.3435,-0.3431,-0.3428,-0.3383,-0.338,-0.34,-0.3398,-0.3396,-0.3395,0,0,0,0,0,0,0,-0.3309,-0.332,-0.3462,-0.3464,-0.3467,-0.3428,-0.3437,-0.3407,-0.3445,-0.3475,-0.3476,-0.3493,-0.3435,-0.3431,-0.3426,-0.3379,-0.34,-0.3397,-0.3395,-0.3394,-0.3437,-0.344,0,0,0,0,0,0,-0.3327,-0.3317,-0.3461,-0.3464,-0.3398,-0.3432,-0.3442,-0.3479,-0.3447,-0.3446,-0.3493,-0.3493,-0.3437,-0.343,-0.3423,-0.3479,-0.3396,-0.3393,-0.3391,-0.3434,-0.3438,-0.3441,0,0,0,0,0,0,-0.3322,-0.334,-0.346,-0.3396,-0.3409,-0.3437,-0.3478,-0.348,-0.3481,-0.3464,-0.3459,-0.3494,-0.3436,-0.3428,-0.3418,-0.3472,-0.3392,-0.3389,-0.343,-0.3435,-0.3439,-0.3534,0,0,0,0,0,0,-0.3317,-0.3338,-0.3365,-0.3398,-0.3414,-0.348,-0.3479,-0.3481,-0.3495,-0.3495,-0.3463,-0.3456,-0.3436,-0.3423,-0.3415,-0.3466,-0.3386,-0.3426,-0.3433,-0.3438,-0.3527,-0.3541,-0.3554,0,0,0,0,0,-0.331,-0.3355,-0.3366,-0.3384,-0.3453,-0.3481,-0.3484,-0.3497,-0.3495,-0.3496,-0.3489,-0.3457,-0.3456,-0.3422,-0.3412,-0.3463,-0.3424,-0.3431,-0.3438,-0.3521,-0.3539,-0.3553,0,0,0,0,0,0,-0.331,-0.3361,-0.3373,-0.3441,-0.3459,-0.3483,-0.3494,-0.3499,-0.3493,-0.3489,-0.3466,-0.346,-0.3487,-0.3458,-0.3422,-0.3501,-0.3446,-0.3451,-0.3514,-0.3529,-0.3543,-0.3534,-0.3384,0,0,0,0,0,-0.3319,-0.3349,-0.3393,-0.3444,-0.3453,-0.3469,-0.3481,-0.3487,-0.3494,-0.3492,-0.3476,-0.3478,-0.3508,-0.3501,-0.3505,-0.3515,-0.3464,-0.3555,-0.3568,-0.3579,-0.3571,-0.3558,-0.3568,-0.3464,-0.3464,-0.3464,0,0,-0.3341,-0.3367,-0.3392,-0.3441,-0.3453,-0.3484,-0.3474,-0.3494,-0.3528,-0.3482,-0.3506,-0.3511,-0.3523,-0.3562,-0.3572,-0.3539,-0.3582,-0.3588,-0.3597,-0.3582,-0.3566,-0.3575,-0.3584,-0.3468,-0.3468,-0.3467,0,0,-0.3364,-0.3414,-0.3425,-0.3448,-0.3469,-0.349,-0.3498,-0.3516,-0.353,-0.3547,-0.3561,-0.359,-0.3589,-0.3631,-0.3652,-0.3733,-0.3658,-0.3751,-0.3796,-0.3785,-0.3792,-0.3798,-0.373,-0.3729,-0.3751,-0.3751,-0.3751,0,-0.3368,-0.3423,-0.3433,-0.345,-0.3491,-0.3498,-0.3534,-0.3554,-0.3569,-0.3594,-0.3563,-0.3633,-0.3632,-0.3726,-0.377,-0.3762,-0.3716,-0.3731,-0.3798,-0.3803,-0.3807,-0.3736,-0.3734,-0.3756,-0.3756,-0.3755,-0.3755,0,-0.3384,-0.3446,-0.3459,-0.3494,-0.3531,-0.3565,-0.3609,-0.3633,-0.3647,-0.3669,-0.3732,-0.3734,-0.3774,-0.3808,-0.3808,-0.3878,-0.3821,-0.3817,-0.3746,-0.3822,-0.3744,-0.3739,-0.3764,-0.3762,-0.376,-0.3759,0,0,-0.3333,-0.3447,-0.3449,-0.3503,-0.3564,-0.36,-0.367,-0.374,-0.3788,-0.3795,-0.3852,-0.3921,-0.3905,-0.3929,-0.3944,-0.3941,-0.3934,-0.3891,-0.3888,-0.3803,-0.3858,-0.3714,-0.3694,-0.3935,-0.3935,-0.3935,-0.3784,0,-0.3333,-0.3411,-0.3462,-0.3562,-0.3623,-0.3684,-0.3756,-0.382,-0.3854,-0.39,-0.393,-0.3974,-0.3961,-0.3976,-0.3981,-0.3956,-0.3929,-0.3972,-0.3815,-0.3809,-0.3656,-0.3688,-0.3559,-0.3405,-0.3779,-0.3778,-0.3777,0,-0.3309,-0.3383,-0.3483,-0.3641,-0.3667,-0.372,-0.3845,-0.3904,-0.3983,-0.4004,-0.4045,-0.4046,-0.408,-0.4036,-0.3992,-0.4014,-0.3939,-0.3896,-0.3889,-0.3714,-0.3658,-0.3396,-0.3381,-0.3359,-0.3769,-0.377,-0.3771,0,-0.327,-0.3399,-0.3495,-0.3544,-0.3701,-0.3756,-0.3828,-0.3926,-0.3973,-0.4051,-0.4057,-0.4105,-0.4084,-0.4041,-0.3938,-0.3966,-0.3835,-0.3863,-0.3655,-0.3642,-0.3479,-0.345,-0.3403,-0.3805,-0.3805,-0.3806,-0.3806,0,-0.3269,-0.3341,-0.3484,-0.354,-0.364,-0.3748,-0.3834,-0.3912,-0.3992,-0.4007,-0.4085,-0.4066,-0.4078,-0.4003,-0.3934,-0.3747,-0.3819,-0.3646,-0.3599,-0.3507,-0.3484,-0.3412,-0.3445,-0.38,-0.3801,-0.3802,-0.3803,0,-0.3221,-0.332,-0.3426,-0.3584,-0.3627,-0.3689,-0.3812,-0.385,-0.3945,-0.3956,-0.3968,-0.4017,-0.3914,-0.3875,-0.3774,-0.3695,-0.3492,-0.3481,-0.3338,-0.3278,-0.3086,-0.3129,-0.2983,-0.29,-0.3249,-0.3245,-0.3241,0,-0.3214,-0.326,-0.3414,-0.3447,-0.3512,-0.3613,-0.3655,-0.3796,-0.3811,-0.388,-0.3846,-0.381,-0.3704,-0.3522,-0.3416,-0.3252,-0.3271,-0.3035,-0.3085,-0.3037,-0.3053,-0.3088,-0.3033,-0.2899,-0.2893,-0.2888,-0.2884,0,-0.316,-0.3197,-0.3265,-0.3343,-0.3393,-0.3464,-0.3527,-0.3525,-0.3629,-0.3625,-0.3551,-0.3488,-0.3369,-0.3164,-0.3006,-0.2905,-0.2969,-0.2922,-0.2931,-0.2811,-0.279,-0.2698,-0.3014,-0.2839,-0.2843,-0.2847,-0.2849,-0.2851,-0.3061,-0.3074,-0.313,-0.3185,-0.3242,-0.3233,-0.3178,-0.3224,-0.3185,-0.3099,-0.3189,-0.3056,-0.2985,-0.2756,-0.265,-0.249,-0.2598,-0.2441,-0.2501,-0.2544,-0.2457,-0.2637,-0.2384,-0.2386,-0.2388,-0.2389,-0.239,0,-0.2916,-0.292,-0.2961,-0.2981,-0.2936,-0.3045,-0.3014,-0.2896,-0.2728,-0.2761,-0.2671,-0.2602,-0.2412,-0.2386,-0.225,-0.2131,-0.2112,-0.2088,-0.2154,-0.2122,-0.2312,-0.2291,-0.1936,-0.1936,-0.1936,-0.1936,-0.1936,-0.1936,-0.2825,-0.2773,-0.2793,-0.2652,-0.2643,-0.2477,-0.2387,-0.2271,-0.224,-0.2097,-0.2105,-0.2191,-0.2201,-0.2278,-0.2106,-0.1992,-0.1969,-0.1878,-0.1927,-0.213,-0.2171,-0.221,-0.2199,-0.183,-0.183,-0.1667,-0.1666,-0.1665]},{"header":{"parameterUnit":"m.s-1","parameterCategory":2,"la1":30.2991,"la2":30.254,"lo1":-89.0895,"lo2":-89.0444,"dy":0.0017,"dx":0.0017,"nx":28,"ny":28,"refTime":"2025-03-31T21:00:00:Z","depth":"0","parameterNumber":3,"parameterNumberName":"V-component_of_CURRENTS"},"data":[0,0,0,0,0,0,0,0,0,0,0,0,0,0,0,0,0,0,0,0,0,0,0,0,0,0,0,0,0,0,0,0,0,0,0,0,0,0,0,0,0,0,0,0,0,0,0,0,0,0,0,0,0,0,0,0,0,0,-0.0626,-0.0625,0,-0.0514,-0.0512,-0.0511,-0.0474,-0.0474,-0.0475,-0.0475,-0.029,-0.0285,-0.028,0,0,0,0,0,0,0,0,0,0,0,0,0,-0.067,-0.0671,-0.0626,-0.0625,-0.0623,-0.0514,-0.0512,-0.0511,-0.0474,-0.0474,-0.0475,-0.0475,-0.0292,-0.0286,-0.0279,0,0,0,0,0,0,0,0,0,0,0,0,0,-0.0614,-0.0671,-0.0626,-0.0592,-0.0588,-0.0514,-0.0512,-0.051,-0.0473,-0.0474,-0.0475,-0.0476,-0.0294,-0.0286,-0.0278,-0.0213,0,0,-0.0254,-0.025,0,0,0,0,0,0,0,0,-0.0617,-0.0612,-0.0598,-0.0594,-0.0589,-0.0509,-0.046,-0.0407,-0.0473,-0.0516,-0.0475,-0.0476,-0.0356,-0.0343,-0.0321,-0.0204,-0.0196,-0.0253,-0.0248,-0.0245,-0.0242,0,0,0,0,0,0,0,-0.0622,-0.0616,-0.0581,-0.0597,-0.0591,-0.0535,-0.0529,-0.045,-0.0432,-0.0513,-0.051,-0.0498,-0.0354,-0.0329,-0.0316,-0.0194,-0.0253,-0.0246,-0.0241,-0.0238,-0.0063,-0.0063,0,0,0,0,0,0,-0.0643,-0.0621,-0.0585,-0.0578,-0.0606,-0.0534,-0.0527,-0.0534,-0.0434,-0.042,-0.0497,-0.0496,-0.0342,-0.0326,-0.0309,-0.0271,-0.0245,-0.0237,-0.0232,-0.0063,-0.0063,-0.0063,0,0,0,0,0,0,-0.0644,-0.0641,-0.0589,-0.0596,-0.0585,-0.0534,-0.054,-0.0531,-0.0509,-0.0423,-0.0408,-0.0485,-0.0342,-0.0321,-0.0257,-0.0262,-0.0233,-0.0226,-0.0063,-0.0063,-0.0063,-0.0165,0,0,0,0,0,0,-0.0647,-0.0643,-0.0654,-0.0598,-0.0586,-0.0559,-0.0539,-0.0528,-0.05,-0.0498,-0.0407,-0.0391,-0.0341,-0.027,-0.0249,-0.025,-0.022,-0.0062,-0.0063,-0.0063,-0.0161,-0.0169,-0.0175,0,0,0,0,0,-0.0649,-0.0668,-0.0656,-0.0651,-0.0604,-0.0559,-0.0548,-0.0512,-0.0499,-0.0494,-0.044,-0.0394,-0.0258,-0.0263,-0.0238,-0.0238,-0.0062,-0.0063,-0.0063,-0.0158,-0.0167,-0.0175,0,0,0,0,0,0,-0.0705,-0.0664,-0.065,-0.066,-0.0617,-0.0553,-0.0545,-0.0513,-0.0463,-0.0462,-0.0385,-0.0365,-0.0315,-0.0258,-0.0265,-0.019,-0.0156,-0.0151,-0.0236,-0.0244,-0.0251,-0.0261,-0.0213,0,0,0,0,0,-0.0719,-0.072,-0.0667,-0.0677,-0.0658,-0.0599,-0.0575,-0.0548,-0.0496,-0.0476,-0.0414,-0.035,-0.0295,-0.0258,-0.0199,-0.0142,-0.0077,-0.0129,-0.0136,-0.0142,-0.0135,-0.0053,-0.0052,-0.0065,-0.0065,-0.0065,0,0,-0.0748,-0.0722,-0.0727,-0.0687,-0.0652,-0.0631,-0.0587,-0.0559,-0.0542,-0.046,-0.0422,-0.0367,-0.0287,-0.0243,-0.0214,-0.0195,-0.0105,-0.0143,-0.0149,-0.0137,-0.0054,-0.0052,-0.0051,-0.0065,-0.0065,-0.0065,0,0,-0.079,-0.0779,-0.0782,-0.075,-0.0698,-0.066,-0.0654,-0.0589,-0.0564,-0.0513,-0.0464,-0.0412,-0.0316,-0.027,-0.0232,-0.0231,-0.0148,-0.0217,-0.025,-0.0173,-0.0171,-0.0168,-0.009,-0.008,-0.0217,-0.0217,-0.0217,0,-0.0814,-0.0825,-0.0777,-0.0763,-0.0747,-0.0678,-0.0675,-0.0633,-0.0558,-0.0535,-0.0517,-0.0391,-0.0329,-0.0271,-0.0284,-0.0246,-0.0188,-0.023,-0.0182,-0.0178,-0.0174,-0.0094,-0.0081,-0.0222,-0.0221,-0.0221,-0.022,0,-0.0847,-0.0856,-0.0857,-0.0822,-0.0795,-0.0785,-0.0721,-0.0692,-0.0651,-0.0601,-0.0536,-0.0453,-0.0379,-0.0358,-0.0318,-0.0264,-0.0228,-0.0206,-0.0166,-0.0179,-0.0093,-0.0078,-0.0229,-0.0227,-0.0226,-0.0224,0,0,-0.0888,-0.0882,-0.088,-0.0891,-0.083,-0.0816,-0.0785,-0.0736,-0.0716,-0.0639,-0.0602,-0.0516,-0.0465,-0.0419,-0.0359,-0.0292,-0.0221,-0.0245,-0.0239,-0.0175,-0.0044,0.001,0.0032,-0.0193,-0.0191,-0.0189,0.0001,0,-0.0923,-0.095,-0.0918,-0.094,-0.0953,-0.0888,-0.0868,-0.0812,-0.075,-0.0695,-0.0598,-0.0541,-0.0489,-0.046,-0.0384,-0.0257,-0.0185,-0.0274,-0.0032,-0.0025,0.0018,0.005,0.0078,0.0252,0.0017,0.0019,0.0021,0,-0.0952,-0.0973,-0.1013,-0.1024,-0.1018,-0.1009,-0.0969,-0.0938,-0.0837,-0.0786,-0.07,-0.0617,-0.0507,-0.0468,-0.0247,-0.0306,-0.0186,-0.0086,-0.0076,0.0024,0.0057,0.0231,0.0289,0.0462,0.0045,0.0043,0.0042,0,-0.1022,-0.1036,-0.1085,-0.1085,-0.1072,-0.1072,-0.1052,-0.097,-0.0944,-0.0841,-0.0803,-0.0654,-0.0571,-0.0406,-0.0196,-0.0221,0.0059,0.0053,0.022,0.0225,0.0324,0.0335,0.0575,0.0208,0.0208,0.0207,0.0207,0,-0.1081,-0.1115,-0.1128,-0.1156,-0.1202,-0.115,-0.116,-0.1113,-0.1029,-0.0989,-0.0861,-0.0783,-0.0551,-0.0365,-0.0192,0.0079,0.0072,0.0235,0.0286,0.0289,0.0293,0.0509,0.0566,0.0215,0.0213,0.0212,0.021,0,-0.1158,-0.1163,-0.1225,-0.1238,-0.1245,-0.1276,-0.1254,-0.1249,-0.1156,-0.1094,-0.1066,-0.0857,-0.0604,-0.0357,-0.0055,0.0095,0.0452,0.0425,0.0416,0.0462,0.0746,0.0795,0.1102,0.1196,0.0633,0.0635,0.0638,0,-0.1204,-0.1247,-0.1305,-0.1349,-0.1362,-0.1392,-0.1408,-0.1331,-0.1308,-0.113,-0.1101,-0.0847,-0.0646,-0.0176,0.0138,0.0476,0.0596,0.0685,0.0639,0.0793,0.0885,0.0919,0.0976,0.0734,0.0737,0.0739,0.0741,0,-0.1293,-0.1311,-0.1366,-0.1465,-0.1507,-0.1546,-0.1548,-0.1536,-0.1414,-0.1326,-0.1135,-0.0953,-0.049,-0.0076,0.0364,0.056,0.0809,0.0741,0.0917,0.1007,0.1047,0.115,0.0574,0.0761,0.0759,0.0758,0.0757,0.0756,-0.1348,-0.1415,-0.1487,-0.1572,-0.1626,-0.1656,-0.1654,-0.1621,-0.1547,-0.1353,-0.1171,-0.0855,-0.0275,0.0357,0.0589,0.1058,0.1005,0.1179,0.1235,0.1261,0.1333,0.0799,0.1024,0.1023,0.1023,0.1022,0.1022,0,-0.1424,-0.1487,-0.1585,-0.1664,-0.1718,-0.1725,-0.1712,-0.1659,-0.1553,-0.1354,-0.1133,-0.0486,0.009,0.0616,0.1274,0.1529,0.1571,0.1656,0.1714,0.1753,0.1313,0.1296,0.157,0.157,0.157,0.157,0.157,0.1569,-0.1463,-0.1571,-0.1622,-0.1715,-0.1753,-0.1758,-0.1729,-0.164,-0.1488,-0.1123,-0.0766,-0.0484,0.0269,0.1323,0.1929,0.1989,0.2184,0.2184,0.2288,0.1977,0.1936,0.1896,0.1897,0.2293,0.2294,0.2704,0.2708,0.2711]}],[{"header":{"parameterUnit":"m.s-1","parameterCategory":2,"la1":30.2991,"la2":30.254,"lo1":-89.0895,"lo2":-89.0444,"dy":0.0017,"dx":0.0017,"nx":28,"ny":28,"refTime":"2025-03-31T21:00:00:Z","depth":"2","parameterNumber":2,"parameterNumberName":"U-component_of_CURRENTS"},"data":[0,0,0,0,0,0,0,0,0,0,0,0,0,0,0,0,0,0,0,0,0,0,0,0,0,0,0,0,0,0,0,0,0,0,0,0,0,0,0,0,0,0,0,0,0,0,0,0,0,0,0,0,0,0,0,0,0,0,-0.2387,-0.2387,0,-0.2442,-0.2444,-0.2445,-0.2373,-0.237,-0.2366,-0.2363,-0.2362,-0.2365,-0.2368,0,0,0,0,0,0,0,0,0,0,0,0,0,-0.227,-0.2273,-0.2387,-0.2387,-0.2386,-0.2442,-0.2444,-0.2445,-0.2374,-0.237,-0.2365,-0.2361,-0.236,-0.2364,-0.2368,0,0,0,0,0,0,0,0,0,0,0,0,0,-0.2332,-0.2274,-0.2387,-0.235,-0.2346,-0.2441,-0.2444,-0.2446,-0.2375,-0.237,-0.2364,-0.2359,-0.2359,-0.2364,-0.2369,-0.2505,0,0,-0.2384,-0.2386,0,0,0,0,0,0,0,0,-0.2329,-0.2338,-0.2356,-0.2353,-0.2349,-0.2386,-0.2401,-0.2459,-0.2376,-0.2375,-0.2363,-0.2357,-0.2362,-0.2366,-0.2404,-0.2505,-0.2505,-0.2384,-0.2387,-0.2389,-0.2391,0,0,0,0,0,0,0,-0.2324,-0.2335,-0.2419,-0.2356,-0.2351,-0.2347,-0.2351,-0.2413,-0.2405,-0.2375,-0.2367,-0.2359,-0.236,-0.24,-0.2403,-0.2505,-0.2384,-0.2388,-0.2391,-0.2393,-0.2562,-0.2564,0,0,0,0,0,0,-0.2301,-0.2332,-0.2417,-0.242,-0.2314,-0.2352,-0.2357,-0.2388,-0.2405,-0.24,-0.2363,-0.2355,-0.2394,-0.2397,-0.2402,-0.2453,-0.2389,-0.2394,-0.2397,-0.2561,-0.2563,-0.2564,0,0,0,0,0,0,-0.2299,-0.231,-0.2415,-0.2365,-0.2377,-0.2358,-0.2395,-0.2392,-0.2416,-0.2395,-0.2389,-0.2386,-0.239,-0.2395,-0.2435,-0.2455,-0.2396,-0.24,-0.2559,-0.2561,-0.2564,-0.2625,0,0,0,0,0,0,-0.2297,-0.2311,-0.2342,-0.2366,-0.2378,-0.245,-0.2399,-0.2396,-0.2415,-0.2405,-0.2415,-0.2409,-0.2386,-0.2428,-0.244,-0.2461,-0.2404,-0.2557,-0.256,-0.2563,-0.2621,-0.2629,-0.2636,0,0,0,0,0,-0.2293,-0.2336,-0.2345,-0.2354,-0.2419,-0.245,-0.2459,-0.2432,-0.2421,-0.2438,-0.2439,-0.2408,-0.2452,-0.2435,-0.2448,-0.2471,-0.2556,-0.2559,-0.2563,-0.2617,-0.2627,-0.2636,0,0,0,0,0,0,-0.2274,-0.2333,-0.2342,-0.2395,-0.2414,-0.2433,-0.2443,-0.2455,-0.2483,-0.247,-0.2456,-0.2454,-0.2486,-0.2488,-0.2468,-0.2525,-0.2491,-0.2497,-0.2528,-0.2538,-0.2545,-0.2561,-0.2408,0,0,0,0,0,-0.2298,-0.2352,-0.2388,-0.2421,-0.2436,-0.2459,-0.2475,-0.2471,-0.2487,-0.2494,-0.2502,-0.2509,-0.2526,-0.2533,-0.2549,-0.2617,-0.2605,-0.263,-0.2638,-0.2644,-0.2666,-0.2691,-0.2703,-0.2576,-0.2576,-0.2576,0,0,-0.2293,-0.233,-0.2358,-0.2422,-0.2436,-0.2473,-0.2456,-0.2482,-0.2514,-0.2496,-0.2545,-0.2548,-0.255,-0.2588,-0.2604,-0.2585,-0.2665,-0.2649,-0.2654,-0.2673,-0.2696,-0.2709,-0.272,-0.2578,-0.2578,-0.2577,0,0,-0.23,-0.235,-0.2401,-0.2427,-0.2459,-0.2484,-0.2496,-0.254,-0.2556,-0.2621,-0.2597,-0.2618,-0.2665,-0.2659,-0.2664,-0.2741,-0.2706,-0.2738,-0.2795,-0.2819,-0.283,-0.2839,-0.2799,-0.2805,-0.274,-0.274,-0.274,0,-0.2311,-0.2365,-0.241,-0.2449,-0.2473,-0.2491,-0.2538,-0.2573,-0.2622,-0.2658,-0.2624,-0.2706,-0.2696,-0.275,-0.2754,-0.2758,-0.275,-0.2757,-0.2829,-0.2838,-0.2847,-0.2804,-0.2809,-0.2743,-0.2743,-0.2743,-0.2742,0,-0.2331,-0.2389,-0.2405,-0.248,-0.2521,-0.2552,-0.2602,-0.2647,-0.2677,-0.2714,-0.2783,-0.2788,-0.2824,-0.2823,-0.2812,-0.2876,-0.2839,-0.2835,-0.2805,-0.2864,-0.2814,-0.2818,-0.2748,-0.2747,-0.2746,-0.2745,0,0,-0.2344,-0.2423,-0.2432,-0.2472,-0.2546,-0.258,-0.2647,-0.2728,-0.2779,-0.2822,-0.2892,-0.2923,-0.2932,-0.294,-0.2934,-0.2959,-0.2985,-0.2931,-0.293,-0.2888,-0.3002,-0.2874,-0.2865,-0.3002,-0.3005,-0.3006,-0.2927,0,-0.2359,-0.2442,-0.2485,-0.2557,-0.2607,-0.2657,-0.2717,-0.2789,-0.2849,-0.2915,-0.2944,-0.2995,-0.2974,-0.2991,-0.3019,-0.3007,-0.3008,-0.3005,-0.2955,-0.2952,-0.2831,-0.2872,-0.2678,-0.2584,-0.2931,-0.2932,-0.2932,0,-0.2367,-0.2431,-0.2518,-0.2618,-0.2645,-0.269,-0.2803,-0.2862,-0.2956,-0.3003,-0.3069,-0.3087,-0.3134,-0.3098,-0.3115,-0.3118,-0.3068,-0.3046,-0.3043,-0.2914,-0.2835,-0.2591,-0.2579,-0.2939,-0.2938,-0.2938,-0.2937,0,-0.2341,-0.2453,-0.2528,-0.2556,-0.2669,-0.2721,-0.2782,-0.289,-0.2949,-0.306,-0.3103,-0.3172,-0.3181,-0.3185,-0.3114,-0.3133,-0.3099,-0.3108,-0.2938,-0.2925,-0.2746,-0.2714,-0.3111,-0.3111,-0.3111,-0.3111,-0.3111,0,-0.2343,-0.2397,-0.2517,-0.2546,-0.2635,-0.272,-0.2816,-0.2887,-0.2987,-0.304,-0.3138,-0.3163,-0.3211,-0.3184,-0.3138,-0.3028,-0.3104,-0.2955,-0.2914,-0.2755,-0.2727,-0.3035,-0.3027,-0.3108,-0.3109,-0.3109,-0.311,0,-0.2303,-0.2374,-0.2457,-0.2582,-0.2619,-0.2683,-0.2805,-0.2851,-0.2974,-0.3041,-0.307,-0.3156,-0.313,-0.3117,-0.3084,-0.302,-0.2949,-0.2874,-0.2648,-0.2583,-0.2756,-0.2753,-0.2728,-0.2723,-0.2719,-0.2715,-0.2713,0,-0.2289,-0.2325,-0.2459,-0.2482,-0.2536,-0.2637,-0.2674,-0.2818,-0.2865,-0.3001,-0.3,-0.3032,-0.2989,-0.2897,-0.2815,-0.2705,-0.279,-0.2451,-0.247,-0.2763,-0.2726,-0.2729,-0.2731,-0.2232,-0.2226,-0.2221,-0.2216,0,-0.2244,-0.229,-0.2348,-0.2407,-0.2452,-0.2516,-0.2589,-0.2628,-0.2764,-0.2815,-0.283,-0.2815,-0.2763,-0.2576,-0.2453,-0.2367,-0.2474,-0.2339,-0.2713,-0.2364,-0.2292,-0.2257,-0.2276,-0.2169,-0.2173,-0.2177,-0.218,-0.2181,-0.2181,-0.2199,-0.2248,-0.2293,-0.2345,-0.2348,-0.2338,-0.2406,-0.2435,-0.246,-0.2557,-0.2475,-0.2457,-0.2189,-0.2055,-0.1976,-0.2156,-0.2069,-0.2088,-0.2112,-0.2074,-0.2,-0.181,-0.1813,-0.1815,-0.1817,-0.1819,0,-0.2076,-0.208,-0.211,-0.2133,-0.2116,-0.2202,-0.2225,-0.2172,-0.2128,-0.2174,-0.2162,-0.1942,-0.1808,-0.1801,-0.162,-0.1575,-0.1587,-0.15,-0.1529,-0.1576,-0.1618,-0.1559,-0.1156,-0.1154,-0.1152,-0.115,0,0,-0.1995,-0.1958,-0.1969,-0.1885,-0.1902,-0.1817,-0.1795,-0.1743,-0.174,-0.1648,-0.1612,-0.1729,-0.176,-0.1466,-0.1387,-0.1249,-0.1401,-0.1182,-0.1715,-0.1798,-0.1838,-0.1944,-0.1904,0,0,0,0,0]},{"header":{"parameterUnit":"m.s-1","parameterCategory":2,"la1":30.2991,"la2":30.254,"lo1":-89.0895,"lo2":-89.0444,"dy":0.0017,"dx":0.0017,"nx":28,"ny":28,"refTime":"2025-03-31T21:00:00:Z","depth":"2","parameterNumber":3,"parameterNumberName":"V-component_of_CURRENTS"},"data":[0,0,0,0,0,0,0,0,0,0,0,0,0,0,0,0,0,0,0,0,0,0,0,0,0,0,0,0,0,0,0,0,0,0,0,0,0,0,0,0,0,0,0,0,0,0,0,0,0,0,0,0,0,0,0,0,0,0,-0.0271,-0.027,0,-0.0184,-0.0184,-0.0184,-0.012,-0.0119,-0.0118,-0.0117,0.0019,0.0022,0.0024,0,0,0,0,0,0,0,0,0,0,0,0,0,-0.0303,-0.0304,-0.0272,-0.027,-0.0268,-0.0185,-0.0184,-0.0183,-0.012,-0.0119,-0.0117,-0.0116,0.0018,0.0021,0.0024,0,0,0,0,0,0,0,0,0,0,0,0,0,-0.0266,-0.0304,-0.0272,-0.0222,-0.0216,-0.0185,-0.0184,-0.0183,-0.012,-0.0119,-0.0117,-0.0115,0.0017,0.0021,0.0025,0.0014,0,0,0.0036,0.0038,0,0,0,0,0,0,0,0,-0.0269,-0.0266,-0.0231,-0.0225,-0.0218,-0.0156,-0.0145,-0.0112,-0.0121,-0.0164,-0.0117,-0.0115,-0.0032,-0.0024,-0.0021,0.0021,0.0027,0.0037,0.0039,0.0041,0.0042,0,0,0,0,0,0,0,-0.0271,-0.0269,-0.0244,-0.0229,-0.0221,-0.0176,-0.017,-0.0139,-0.0112,-0.016,-0.0153,-0.0134,-0.0029,-0.0025,-0.0017,0.0029,0.0037,0.004,0.0042,0.0044,0.0144,0.0144,0,0,0,0,0,0,-0.0276,-0.0272,-0.0246,-0.024,-0.0232,-0.0176,-0.017,-0.0183,-0.0114,-0.01,-0.0135,-0.0131,-0.0033,-0.0022,-0.0012,0.0015,0.0041,0.0044,0.0047,0.0144,0.0144,0.0144,0,0,0,0,0,0,-0.0277,-0.0276,-0.025,-0.0247,-0.0239,-0.0178,-0.0192,-0.0182,-0.0171,-0.0094,-0.0081,-0.0133,-0.0031,-0.0017,0.002,0.0019,0.0046,0.005,0.0143,0.0144,0.0144,0.0046,0,0,0,0,0,0,-0.0279,-0.0278,-0.0293,-0.0248,-0.0239,-0.0231,-0.0192,-0.0181,-0.0159,-0.0152,-0.0088,-0.0074,-0.0028,0.0014,0.0024,0.0025,0.0053,0.0143,0.0143,0.0144,0.0049,0.0043,0.0039,0,0,0,0,0,-0.0281,-0.0304,-0.0296,-0.0291,-0.0263,-0.0231,-0.0223,-0.0176,-0.016,-0.0161,-0.0115,-0.0076,0.0027,0.0017,0.0028,0.0031,0.0142,0.0143,0.0144,0.0051,0.0044,0.0039,0,0,0,0,0,0,-0.0312,-0.0298,-0.0288,-0.0303,-0.0269,-0.0217,-0.0209,-0.0185,-0.0154,-0.0149,-0.0084,-0.0067,-0.0032,0.0013,0.0001,0.0066,0.0096,0.0099,0.0022,0.0016,0.001,-0.0005,0.0056,0,0,0,0,0,-0.0331,-0.0354,-0.0316,-0.0324,-0.0314,-0.0268,-0.0251,-0.0224,-0.0184,-0.0169,-0.0122,-0.0067,-0.0023,0.0006,0.005,0.0075,0.0127,0.0091,0.0086,0.0081,0.0079,0.0149,0.015,0.0147,0.0147,0.0147,0,0,-0.0344,-0.0336,-0.0348,-0.0333,-0.0307,-0.0303,-0.0256,-0.0236,-0.023,-0.016,-0.014,-0.0091,-0.0021,0.0011,0.0032,0.0051,0.0109,0.0082,0.0077,0.0078,0.015,0.015,0.0151,0.0148,0.0147,0.0147,0,0,-0.0377,-0.0376,-0.0408,-0.0388,-0.0355,-0.0328,-0.0326,-0.0284,-0.0262,-0.024,-0.0184,-0.0135,-0.0073,-0.0019,0.0015,0.0009,0.0073,0.0026,-0.0009,0.0058,0.0058,0.0059,0.0117,0.0124,0.0029,0.0029,0.0029,0,-0.0399,-0.0429,-0.0404,-0.0416,-0.0405,-0.0346,-0.0363,-0.0334,-0.0283,-0.0266,-0.024,-0.0139,-0.0084,-0.0032,-0.0032,-0.0004,0.0039,0.0001,0.0049,0.0051,0.0054,0.0113,0.0121,0.0024,0.0025,0.0025,0.0026,0,-0.0445,-0.0469,-0.0477,-0.0487,-0.047,-0.0472,-0.0426,-0.0408,-0.0374,-0.0336,-0.0282,-0.0204,-0.0137,-0.0111,-0.0077,-0.0029,-0.0004,0.0025,0.0056,0.0048,0.0111,0.0122,0.0018,0.0019,0.0021,0.0022,0,0,-0.0506,-0.0519,-0.0523,-0.0544,-0.0513,-0.051,-0.0494,-0.0465,-0.0455,-0.0389,-0.036,-0.0278,-0.0226,-0.0182,-0.012,-0.0062,-0.0011,-0.0021,-0.0016,0.002,0.0129,0.0158,0.0173,0.002,0.0022,0.0023,0.0161,0,-0.0556,-0.0614,-0.0594,-0.0635,-0.0662,-0.0606,-0.0596,-0.0556,-0.0506,-0.046,-0.036,-0.0311,-0.0253,-0.0224,-0.0155,-0.0044,0.0015,-0.0051,0.0147,0.0152,0.0166,0.0186,0.0155,0.0277,0.0172,0.0174,0.0176,0,-0.0611,-0.0647,-0.0709,-0.0729,-0.0733,-0.0738,-0.0714,-0.0696,-0.0607,-0.0564,-0.0481,-0.0399,-0.0294,-0.0249,-0.0058,-0.0106,-0.0002,0.0085,0.0093,0.0162,0.0202,0.0274,0.0301,0.0195,0.0193,0.0192,0.0191,0,-0.0678,-0.0725,-0.0784,-0.0789,-0.0796,-0.0805,-0.0795,-0.0732,-0.0718,-0.0625,-0.0593,-0.0454,-0.0375,-0.0227,-0.004,-0.005,0.0171,0.0188,0.0313,0.0316,0.0352,0.0356,0.0314,0.0314,0.0314,0.0313,0.0313,0,-0.0746,-0.0792,-0.0825,-0.0857,-0.0919,-0.0883,-0.0911,-0.0875,-0.0808,-0.0785,-0.0653,-0.0588,-0.0369,-0.021,-0.0051,0.0173,0.0173,0.0313,0.0358,0.0317,0.0316,0.0296,0.0292,0.0318,0.0317,0.0316,0.0315,0,-0.0815,-0.0831,-0.0908,-0.0944,-0.0957,-0.1001,-0.1003,-0.1006,-0.0934,-0.0892,-0.0865,-0.0677,-0.0462,-0.0238,0.0022,0.016,0.0365,0.0438,0.037,0.0405,0.0464,0.0454,0.0594,0.0596,0.0598,0.0599,0.0601,0,-0.0856,-0.0904,-0.0988,-0.1034,-0.1056,-0.1106,-0.1125,-0.1079,-0.1069,-0.094,-0.0915,-0.0706,-0.0533,-0.0135,0.0139,0.0433,0.043,0.0559,0.0538,0.0465,0.0496,0.0482,0.0469,0.055,0.055,0.0551,0.0552,0,-0.0936,-0.0966,-0.103,-0.1133,-0.1183,-0.1234,-0.1252,-0.1262,-0.1182,-0.1114,-0.0969,-0.082,-0.0435,-0.0101,0.0269,0.0435,0.0511,0.0582,0.055,0.0474,0.0433,0.0459,0.0447,0.0558,0.0557,0.0557,0.0556,0.0556,-0.0987,-0.1055,-0.1135,-0.1227,-0.1289,-0.1333,-0.1352,-0.1334,-0.1296,-0.1158,-0.1015,-0.0754,-0.0441,0.01,0.0363,0.0604,0.0598,0.066,0.0654,0.0649,0.0609,0.0573,0.0717,0.0717,0.0717,0.0717,0.0718,0,-0.1052,-0.1116,-0.1213,-0.1307,-0.1371,-0.1389,-0.1407,-0.1378,-0.1316,-0.116,-0.0986,-0.0616,-0.0238,0.0087,0.0474,0.0699,0.0678,0.0732,0.0659,0.0652,0.0646,0.0603,0.0711,0.0712,0.0713,0.0713,0,0,-0.1079,-0.1183,-0.1234,-0.1349,-0.1407,-0.1448,-0.145,-0.1384,-0.1268,-0.1089,-0.0892,-0.0626,-0.0228,0.0042,0.033,0.0533,0.053,0.055,0.0533,0.0406,0.0397,0.0586,0.051,0,0,0,0,0]}],[{"header":{"parameterUnit":"m.s-1","parameterCategory":2,"la1":30.2991,"la2":30.254,"lo1":-89.0895,"lo2":-89.0444,"dy":0.0017,"dx":0.0017,"nx":28,"ny":28,"refTime":"2025-03-31T21:00:00:Z","depth":"4","parameterNumber":2,"parameterNumberName":"U-component_of_CURRENTS"},"data":[0,0,0,0,0,0,0,0,0,0,0,0,0,0,0,0,0,0,0,0,0,0,0,0,0,0,0,0,0,0,0,0,0,0,0,0,0,0,0,0,0,0,0,0,0,0,0,0,0,0,0,0,0,0,0,0,0,0,-0.14,-0.1401,0,-0.144,-0.1441,-0.1441,-0.1449,-0.1449,-0.1449,-0.1449,-0.153,-0.1532,-0.1535,0,0,0,0,0,0,0,0,0,0,0,0,0,-0.1339,-0.134,-0.14,-0.1401,-0.1401,-0.144,-0.1441,-0.1441,-0.1449,-0.1449,-0.1449,-0.1449,-0.1529,-0.1532,-0.1535,0,0,0,0,0,0,0,0,0,0,0,0,0,-0.137,-0.134,-0.14,-0.1411,-0.1412,-0.144,-0.1441,-0.1441,-0.1449,-0.1449,-0.1449,-0.1449,-0.1528,-0.1532,-0.1535,-0.1563,0,0,-0.1546,-0.1548,0,0,0,0,0,0,0,0,-0.1368,-0.1372,-0.1409,-0.141,-0.1412,-0.1441,-0.1449,-0.1485,-0.145,-0.1434,-0.1449,-0.1448,-0.1505,-0.151,-0.1516,-0.1567,-0.157,-0.1546,-0.1549,-0.155,-0.1551,0,0,0,0,0,0,0,-0.1366,-0.137,-0.1415,-0.141,-0.1411,-0.1417,-0.1421,-0.1456,-0.1471,-0.1436,-0.1437,-0.1443,-0.1506,-0.1513,-0.1519,-0.1572,-0.1546,-0.1549,-0.1552,-0.1553,-0.1672,-0.1673,0,0,0,0,0,0,-0.1363,-0.1368,-0.1414,-0.1416,-0.139,-0.1418,-0.1423,-0.1431,-0.1469,-0.1475,-0.1443,-0.1443,-0.1507,-0.1514,-0.1522,-0.1606,-0.155,-0.1553,-0.1555,-0.1671,-0.1672,-0.1674,0,0,0,0,0,0,-0.1362,-0.1367,-0.1412,-0.1394,-0.14,-0.142,-0.1429,-0.1432,-0.1463,-0.1475,-0.1481,-0.1474,-0.1507,-0.1517,-0.1576,-0.1607,-0.1555,-0.1558,-0.167,-0.1672,-0.1673,-0.1744,0,0,0,0,0,0,-0.136,-0.1366,-0.1383,-0.1394,-0.1401,-0.1448,-0.1429,-0.1433,-0.1466,-0.1467,-0.1503,-0.1508,-0.1508,-0.1571,-0.158,-0.1611,-0.1561,-0.1669,-0.1671,-0.1672,-0.174,-0.1747,-0.1754,0,0,0,0,0,-0.1357,-0.137,-0.1383,-0.139,-0.142,-0.145,-0.1455,-0.1466,-0.1468,-0.1491,-0.1516,-0.1509,-0.1589,-0.1576,-0.1586,-0.1619,-0.1668,-0.167,-0.1672,-0.1737,-0.1746,-0.1754,0,0,0,0,0,0,-0.1342,-0.1373,-0.1387,-0.1407,-0.144,-0.1452,-0.1472,-0.1485,-0.1522,-0.153,-0.1538,-0.1546,-0.1603,-0.1603,-0.1589,-0.1655,-0.1621,-0.1626,-0.1667,-0.1676,-0.1682,-0.1682,-0.1564,0,0,0,0,0,-0.1351,-0.1372,-0.1405,-0.1423,-0.1443,-0.1467,-0.1485,-0.1501,-0.1528,-0.1544,-0.1571,-0.1594,-0.1616,-0.1642,-0.1661,-0.1715,-0.1708,-0.1736,-0.1743,-0.1749,-0.1753,-0.1774,-0.1784,-0.1681,-0.1681,-0.1681,0,0,-0.1349,-0.1368,-0.1381,-0.1423,-0.1446,-0.1487,-0.1477,-0.1517,-0.1554,-0.1549,-0.1615,-0.1627,-0.1635,-0.1684,-0.1708,-0.1694,-0.1774,-0.1752,-0.1757,-0.1758,-0.1778,-0.1788,-0.1797,-0.1683,-0.1683,-0.1682,0,0,-0.1354,-0.1379,-0.1406,-0.1442,-0.1492,-0.1512,-0.1533,-0.1576,-0.1601,-0.1667,-0.166,-0.1696,-0.1748,-0.1752,-0.176,-0.1821,-0.1807,-0.1825,-0.187,-0.1892,-0.1901,-0.1908,-0.1911,-0.1918,-0.1832,-0.1833,-0.1833,0,-0.1362,-0.1391,-0.1419,-0.1461,-0.1493,-0.1529,-0.1574,-0.1608,-0.1668,-0.1696,-0.17,-0.1766,-0.1777,-0.1818,-0.1833,-0.1838,-0.1842,-0.1841,-0.1902,-0.1909,-0.1916,-0.1916,-0.1923,-0.1836,-0.1836,-0.1835,-0.1835,0,-0.1388,-0.1426,-0.1445,-0.1512,-0.1553,-0.1595,-0.165,-0.1701,-0.174,-0.1772,-0.1837,-0.1854,-0.1888,-0.1895,-0.1888,-0.1937,-0.1921,-0.1906,-0.1883,-0.1931,-0.1928,-0.1934,-0.1842,-0.184,-0.1839,-0.1838,0,0,-0.1371,-0.1451,-0.1463,-0.1503,-0.1585,-0.162,-0.1693,-0.1762,-0.181,-0.1872,-0.1927,-0.1966,-0.1976,-0.1983,-0.1978,-0.1999,-0.2047,-0.198,-0.198,-0.1986,-0.2089,-0.1947,-0.1939,-0.205,-0.2052,-0.2053,-0.2068,0,-0.139,-0.1462,-0.1504,-0.1584,-0.1624,-0.1689,-0.1752,-0.1823,-0.1878,-0.1944,-0.1973,-0.2023,-0.2008,-0.203,-0.2052,-0.2045,-0.2067,-0.2043,-0.2038,-0.2038,-0.1908,-0.1943,-0.2058,-0.2072,-0.2073,-0.2074,-0.2075,0,-0.1406,-0.1449,-0.1524,-0.1618,-0.1646,-0.1707,-0.1809,-0.1874,-0.1966,-0.201,-0.2066,-0.2086,-0.2129,-0.2108,-0.2136,-0.2125,-0.2117,-0.2109,-0.211,-0.1955,-0.1906,-0.2013,-0.2086,-0.2085,-0.2084,-0.2083,-0.2083,0,-0.1365,-0.1466,-0.1522,-0.1556,-0.1668,-0.1723,-0.1795,-0.1896,-0.1951,-0.2053,-0.2093,-0.215,-0.2175,-0.2189,-0.2172,-0.2167,-0.2191,-0.2176,-0.2041,-0.2031,-0.2125,-0.2116,-0.2202,-0.2202,-0.2202,-0.2202,-0.2202,0,-0.1353,-0.1403,-0.1512,-0.1543,-0.1625,-0.1715,-0.1809,-0.1888,-0.1989,-0.2046,-0.2121,-0.2152,-0.22,-0.2212,-0.2199,-0.2127,-0.2213,-0.205,-0.2027,-0.2153,-0.2148,-0.2129,-0.212,-0.2202,-0.2202,-0.2202,-0.2202,0,-0.1294,-0.1367,-0.1436,-0.1559,-0.1607,-0.1668,-0.1813,-0.1863,-0.1975,-0.2047,-0.208,-0.2164,-0.2175,-0.2194,-0.2207,-0.2134,-0.2099,-0.2056,-0.2186,-0.217,-0.1921,-0.1916,-0.1906,-0.1901,-0.1897,-0.1894,-0.1891,0,-0.1259,-0.1293,-0.1431,-0.1473,-0.1534,-0.1639,-0.1701,-0.1842,-0.1886,-0.203,-0.2039,-0.2102,-0.2136,-0.204,-0.2077,-0.2037,-0.2011,-0.1979,-0.1951,-0.1913,-0.1893,-0.1894,-0.1895,-0.1884,-0.1883,-0.1882,-0.1881,0,-0.1193,-0.1261,-0.132,-0.1399,-0.1475,-0.1551,-0.1651,-0.1675,-0.1818,-0.1931,-0.1952,-0.1956,-0.196,-0.1952,-0.1926,-0.19,-0.1992,-0.1936,-0.1944,-0.1918,-0.1886,-0.187,-0.1876,-0.1867,-0.1869,-0.187,-0.1871,0,-0.1141,-0.1174,-0.1256,-0.1314,-0.1397,-0.143,-0.1507,-0.156,-0.1629,-0.1787,-0.179,-0.1864,-0.1951,-0.1881,-0.1864,-0.1817,-0.1787,-0.1724,-0.1743,-0.1759,-0.1699,-0.1636,-0.1521,0,0,0,0,0,-0.107,-0.1108,-0.116,-0.1219,-0.1285,-0.1332,-0.1449,-0.152,-0.1658,-0.163,-0.171,-0.1714,-0.1696,-0.1734,-0.165,-0.1774,-0.178,-0.1667,-0.1715,-0.1787,-0.1804,-0.1743,0,0,0,0,0,0,-0.1019,-0.1091,-0.1123,-0.1108,-0.1124,-0.1187,-0.1257,-0.1356,-0.1352,-0.1499,-0.1497,-0.1602,-0.1603,-0.1715,-0.1613,-0.162,-0.1612,-0.1718,-0.1713,-0.1778,-0.1793,-0.1806,-0.175,0,0,0,0,0]},{"header":{"parameterUnit":"m.s-1","parameterCategory":2,"la1":30.2991,"la2":30.254,"lo1":-89.0895,"lo2":-89.0444,"dy":0.0017,"dx":0.0017,"nx":28,"ny":28,"refTime":"2025-03-31T21:00:00:Z","depth":"4","parameterNumber":3,"parameterNumberName":"V-component_of_CURRENTS"},"data":[0,0,0,0,0,0,0,0,0,0,0,0,0,0,0,0,0,0,0,0,0,0,0,0,0,0,0,0,0,0,0,0,0,0,0,0,0,0,0,0,0,0,0,0,0,0,0,0,0,0,0,0,0,0,0,0,0,0,-0.0125,-0.0124,0,-0.0072,-0.0072,-0.0071,-0.0028,-0.0027,-0.0027,-0.0026,0.0059,0.0061,0.0062,0,0,0,0,0,0,0,0,0,0,0,0,0,-0.0127,-0.0128,-0.0125,-0.0124,-0.0123,-0.0072,-0.0072,-0.0071,-0.0028,-0.0027,-0.0026,-0.0026,0.0058,0.0061,0.0063,0,0,0,0,0,0,0,0,0,0,0,0,0,-0.0107,-0.0128,-0.0125,-0.0095,-0.0091,-0.0073,-0.0072,-0.0071,-0.0028,-0.0027,-0.0026,-0.0025,0.0058,0.006,0.0063,0.0062,0,0,0.0071,0.0072,0,0,0,0,0,0,0,0,-0.0108,-0.0107,-0.01,-0.0097,-0.0093,-0.0055,-0.0041,-0.0024,-0.0028,-0.0053,-0.0026,-0.0025,0.0024,0.0029,0.0036,0.0066,0.007,0.0071,0.0073,0.0074,0.0075,0,0,0,0,0,0,0,-0.011,-0.0109,-0.0105,-0.0099,-0.0095,-0.0063,-0.006,-0.0038,-0.002,-0.0051,-0.0047,-0.004,0.0026,0.0033,0.0038,0.0071,0.0071,0.0073,0.0075,0.0076,0.0141,0.0141,0,0,0,0,0,0,-0.0118,-0.0111,-0.0107,-0.0103,-0.0097,-0.0064,-0.006,-0.0069,-0.0021,-0.0013,-0.0041,-0.0038,0.0028,0.0035,0.0041,0.0055,0.0074,0.0076,0.0078,0.014,0.0141,0.0141,0,0,0,0,0,0,-0.0119,-0.0119,-0.0109,-0.0104,-0.01,-0.0065,-0.0074,-0.0068,-0.0059,-0.0013,-0.0005,-0.0038,0.0029,0.0038,0.0061,0.0058,0.0077,0.008,0.014,0.014,0.0141,0.0075,0,0,0,0,0,0,-0.012,-0.012,-0.0129,-0.0105,-0.0101,-0.0101,-0.0075,-0.0068,-0.0055,-0.0051,-0.0008,0.0001,0.003,0.0056,0.0063,0.0062,0.0082,0.014,0.014,0.0141,0.0077,0.0073,0.007,0,0,0,0,0,-0.012,-0.0135,-0.013,-0.0129,-0.0114,-0.0102,-0.0097,-0.0069,-0.0056,-0.0057,-0.0026,-0.0001,0.0064,0.0058,0.0066,0.0066,0.014,0.014,0.0141,0.0079,0.0074,0.007,0,0,0,0,0,0,-0.0133,-0.0131,-0.0125,-0.0137,-0.0122,-0.0094,-0.0091,-0.0074,-0.0052,-0.005,-0.0005,0.0005,0.0026,0.0055,0.0048,0.0088,0.0109,0.0111,0.0059,0.0055,0.0051,0.0036,0.0084,0,0,0,0,0,-0.0144,-0.0159,-0.0143,-0.0151,-0.0148,-0.0123,-0.0113,-0.01,-0.0076,-0.0065,-0.0032,0.0004,0.0033,0.005,0.0079,0.0095,0.0127,0.0104,0.01,0.0096,0.0091,0.0141,0.014,0.0142,0.0142,0.0142,0,0,-0.0151,-0.015,-0.0158,-0.0155,-0.0143,-0.015,-0.0115,-0.0111,-0.0112,-0.006,-0.0048,-0.0011,0.0034,0.0054,0.0067,0.0078,0.0112,0.0097,0.0093,0.0089,0.0141,0.0141,0.0141,0.0142,0.0142,0.0142,0,0,-0.0175,-0.0174,-0.0197,-0.0193,-0.0184,-0.017,-0.0172,-0.0149,-0.0133,-0.0121,-0.008,-0.0046,-0.0005,0.003,0.0052,0.0046,0.0089,0.0059,0.0028,0.0076,0.0076,0.0076,0.0109,0.0113,0.0059,0.0058,0.0058,0,-0.0185,-0.0214,-0.0198,-0.0217,-0.022,-0.0184,-0.0206,-0.0187,-0.0156,-0.0146,-0.0125,-0.0054,-0.0016,0.0015,0.0015,0.0036,0.0066,0.0037,0.007,0.0071,0.0072,0.0106,0.0111,0.0055,0.0056,0.0056,0.0056,0,-0.0227,-0.025,-0.0261,-0.028,-0.0277,-0.029,-0.0266,-0.0256,-0.0232,-0.0207,-0.017,-0.0111,-0.0068,-0.0046,-0.0019,0.0012,0.0029,0.0056,0.0076,0.0068,0.0104,0.0111,0.0051,0.0052,0.0053,0.0054,0,0,-0.0258,-0.0289,-0.0295,-0.0321,-0.0317,-0.0324,-0.0322,-0.0312,-0.0313,-0.0262,-0.0249,-0.0185,-0.0144,-0.0116,-0.0065,-0.002,0.0015,0.0016,0.002,0.0038,0.0111,0.0108,0.0116,0.0047,0.0048,0.0049,0.0128,0,-0.0301,-0.036,-0.0357,-0.0407,-0.0436,-0.0409,-0.0411,-0.0393,-0.0361,-0.0336,-0.026,-0.0228,-0.0172,-0.0151,-0.0097,-0.0008,0.0031,-0.001,0.0125,0.0128,0.0119,0.0123,0.0052,0.0133,0.0135,0.0136,0.0137,0,-0.0348,-0.0385,-0.0447,-0.0486,-0.0495,-0.0513,-0.0516,-0.0514,-0.0462,-0.0433,-0.0375,-0.0312,-0.0233,-0.0188,-0.0042,-0.007,0.0007,0.0076,0.0082,0.0106,0.0138,0.0148,0.0149,0.0148,0.0147,0.0147,0.0146,0,-0.0392,-0.0449,-0.0504,-0.0519,-0.0549,-0.0568,-0.0577,-0.0547,-0.0547,-0.0492,-0.0475,-0.037,-0.0311,-0.0194,-0.0044,-0.0044,0.0115,0.0136,0.0203,0.0204,0.0211,0.021,0.0223,0.0223,0.0223,0.0223,0.0222,0,-0.0442,-0.0488,-0.0535,-0.057,-0.0635,-0.0628,-0.0671,-0.0657,-0.0629,-0.0625,-0.0529,-0.0484,-0.0309,-0.0192,-0.0064,0.0093,0.0104,0.0195,0.0226,0.0181,0.0175,0.0215,0.0213,0.0226,0.0225,0.0224,0.0224,0,-0.0477,-0.0508,-0.0582,-0.0638,-0.0661,-0.0706,-0.0747,-0.0763,-0.0728,-0.0716,-0.0699,-0.0564,-0.0401,-0.0231,-0.003,0.0065,0.0214,0.0261,0.0189,0.0215,0.0272,0.0266,0.0339,0.034,0.034,0.0341,0.0341,0,-0.0497,-0.0541,-0.0638,-0.0689,-0.0721,-0.0784,-0.0819,-0.0815,-0.0817,-0.0754,-0.0737,-0.0595,-0.0486,-0.0199,-0.0025,0.0208,0.0239,0.03,0.0293,0.0262,0.0285,0.0278,0.0271,0.0342,0.0342,0.0342,0.0342,0,-0.0539,-0.0576,-0.0637,-0.0743,-0.0808,-0.0874,-0.0915,-0.0924,-0.0895,-0.0872,-0.0751,-0.06,-0.0419,-0.0193,-0.0015,0.0152,0.0255,0.0306,0.0306,0.03,0.0266,0.0287,0.028,0.0344,0.0344,0.0344,0.0344,0,-0.0559,-0.0616,-0.07,-0.0788,-0.0872,-0.0928,-0.0954,-0.0934,-0.0928,-0.084,-0.0798,-0.0599,-0.0476,-0.0222,-0.0053,0.0108,0.0147,0.0186,0.0193,0.0193,0.0129,0.0063,0.0103,0,0,0,0,0,-0.0573,-0.0646,-0.0737,-0.0833,-0.091,-0.0955,-0.0995,-0.0997,-0.0968,-0.0887,-0.0839,-0.0663,-0.0393,-0.0266,-0.0103,-0.0059,0.0157,0.0134,0.0201,0.0354,0.0352,0.0302,0,0,0,0,0,0,-0.0582,-0.0681,-0.0739,-0.0843,-0.0906,-0.0983,-0.1009,-0.0994,-0.093,-0.0876,-0.072,-0.0639,-0.0365,-0.0482,-0.0102,-0.0054,0.0007,0.0266,0.0268,0.0355,0.0353,0.0352,0.0299,0,0,0,0,0]}]]